YAOGAN 11               
1 37165U 10047A   19260.44294678  .00000028  00000-0  12039-4 0  9995
2 37165  98.2737 355.1202 0036736 195.0768 164.9356 14.76473333484000
ZHEDA PIXING 1B         
1 37166U 10047B   19260.45095730  .00000098  00000-0  19056-4 0  9998
2 37166  97.6654 258.6245 0025188  72.6547 287.7424 14.80848420485234
ZHEDA PIXING 1C         
1 37167U 10047C   19260.51634610  .00000097  00000-0  19044-4 0  9998
2 37167  97.6832 253.5475 0024749  70.4709 289.9175 14.80721605485210
YAOGAN 11 DEB           
1 38174U 10047D   19260.40301125  .00000171  00000-0  64457-4 0  9998
2 38174  97.9080  53.4116 0209833  98.6787 316.6413 14.30178559465392
YAOGAN 11 DEB           
1 38175U 10047E   19260.40045009  .00000200  00000-0  71765-4 0  9998
2 38175  97.9922 107.3321 0204312 112.3150 249.9833 14.31864999911784